Location: Vaulruz
(46.6212°N, 6.9873°E)
Time: 00:54:46
(UTC+00:00)

Daily predictions for brighter satellites

Satellite Brightness Start Highest point End
(mag) Time Altitude Azimuth Time Altitude Azimuth Time Altitude Azimuth
STARLINK-1209 4.5 00:00:01 10° NW 00:02:58 36° NNE 00:05:57 10° E
STARLINK-1099 4.4 00:00:32 10° WNW 00:03:25 39° W 00:03:25 39° W
ATLAS CENTAUR R/B 3.9 00:02:58 10° NNW 00:04:45 18° NE 00:07:25 10° E
GEOS 3 Rocket 3.6 00:07:39 30° SE 00:10:21 85° NE 00:15:40 10° NW
Cosmos 1726 3.3 00:07:53 10° NNW 00:10:54 32° W 00:10:54 32° W
Cosmos 2058 Rocket 3.6 00:08:09 10° N 00:12:29 53° ENE 00:13:46 39° SE
STARLINK-1235 4.4 00:09:54 10° NW 00:12:50 37° NNE 00:15:45 10° E
STARLINK-1187 4.5 00:10:20 10° NW 00:13:14 35° NNE 00:16:07 10° E
COSMOS 2455 2.9 00:11:40 43° S 00:13:34 65° ESE 00:19:32 10° NE
Meteor 1-29 3.1 00:10:23 10° NNE 00:13:32 64° ENE 00:13:32 64° ENE
Cosmos 2228 2.8 00:10:46 10° NNW 00:15:02 77° W 00:15:32 66° SSW
SJ 16-02 4.1 00:13:19 10° NNE 00:15:45 14° NE 00:18:12 10° E
SL-14 R/B 3.8 00:18:39 42° ESE 00:19:06 44° E 00:22:47 10° NNE
Cosmos 1953 3.7 00:16:09 10° NNW 00:19:26 25° W 00:19:26 25° W
IRAS Rocket 4.3 00:17:53 33° SSE 00:20:28 77° ENE 00:26:03 10° NNW
Cosmos 1340 Rocket 3.8 00:17:31 10° NNW 00:21:08 33° W 00:21:08 33° W
Okean 1-7 Rocket 3.8 00:22:03 49° SSE 00:23:00 63° E 00:27:28 10° NNE
Cosmos 1174 3.7 00:23:33 57° ENE 00:23:33 57° ENE 00:26:41 10° NE
Cosmos 1300 3.4 00:20:33 10° N 00:24:15 47° ENE 00:25:04 40° ESE
Cosmos 921 Rocket 4.0 00:23:34 31° ESE 00:24:21 33° E 00:28:13 10° NE
BREEZE M DEB (TANK) 3.6 00:26:49 28° ENE 00:26:49 28° ENE 00:28:39 10° E
COSMOS 2487 3.0 00:24:28 10° NNW 00:27:18 46° WNW 00:27:18 46° WNW
Cosmos 1626 2.1 00:34:31 66° SE 00:34:51 72° E 00:38:34 10° NNE
STARLINK-60 3.6 00:36:27 47° E 00:36:27 47° E 00:38:54 10° ENE
Cosmos 1656 Rocket 4.3 00:33:51 29° WSW 00:36:29 50° WNW 00:41:56 10° NNE
Cosmos 1606 Rocket 4.0 00:34:16 10° NNW 00:38:20 42° W 00:38:48 40° WSW
FALCON 9 R/B 3.5 00:38:25 32° SSW 00:40:40 39° SSE 00:57:28 10° ESE
Nadezhda 1 Rocket 4.3 00:35:43 10° N 00:41:50 62° ENE 00:45:52 22° SSE
MOZ.5/SAFIR/RUBIN 5/SL-8 4.0 00:44:16 30° SE 00:46:28 66° ENE 00:51:04 10° N
UNK 4.5 00:44:00 22° SE 00:46:47 50° ENE 00:51:14 10° N
Meteor 2-21 4.5 00:45:34 36° SSW 00:48:13 71° WNW 00:54:24 10° N
Cosmos 2297 Rocket 3.5 00:43:06 10° NNW 00:48:25 39° NE 00:53:41 10° ESE
SL-4 R/B 2.3 00:49:12 43° SW 00:50:45 76° SSE 00:55:30 10° ENE
Cosmos 1437 2.8 00:52:48 63° E 00:52:48 63° E 00:55:41 10° NNE
NOSS 5 (C) 4.4 00:49:42 10° NW 00:52:56 76° SW 00:53:31 60° SSE
Cosmos 1674 4.1 00:53:21 24° W 00:53:51 24° WNW 00:56:59 10° NNW
SL-19 R/B 4.2 00:52:12 10° NNE 00:57:35 74° WNW 01:00:03 34° SSW
ATLAS CENTAUR R/B 1.6 00:56:56 41° WSW 00:58:19 68° NW 01:02:27 10° NNE
Cosmos 1777 Rocket 4.1 00:54:55 10° NNW 01:00:02 57° WSW 01:01:54 37° SSW
Timation 2 Rocket 3.9 00:54:04 10° NNW 01:00:27 76° WSW 01:04:30 22° SSE
SL-16 R/B 2.6 00:56:01 19° SSE 01:00:32 78° ENE 01:06:43 10° NNW
NOSS 3-4 (A) 3.9 00:57:31 22° WSW 01:01:20 55° NW 01:07:39 10° NE
NOSS 3-4 (C) 3.9 00:57:37 22° WSW 01:01:26 55° NW 01:07:46 10° NE
BREEZE-M R/B 3.3 01:01:07 42° S 01:01:47 46° SSE 01:04:52 10° E
FALCON 9 DEB 4.0 01:02:08 35° SE 01:02:08 35° SE 01:05:03 10° ENE
Cosmos 1602 Rocket 4.0 01:01:58 32° SSE 01:03:40 54° E 01:07:54 10° NNE
STARLINK-29 3.1 01:04:34 58° SE 01:04:34 58° SE 01:07:32 10° ENE
Cosmos 1455 3.8 01:03:16 10° N 01:06:37 30° ENE 01:09:23 13° SE
ATLAS 3B R/B 2.8 01:01:00 10° NW 01:07:38 58° WSW 01:12:43 19° SSE
BREEZE-M DEB (TANK) 4.4 01:09:30 12° ESE 01:09:30 12° ESE 01:09:45 10° E
CENTAUR R/B 3.9 01:04:08 10° NW 01:11:20 34° WSW 01:14:47 26° SSW
BREEZE-M DEB (TANK) 1.4 01:12:38 59° WNW 01:12:56 68° NNW 01:15:13 10° ENE
GP-B 4.4 01:08:53 10° NNE 01:13:00 36° E 01:16:10 15° SSE
Meteor 2-1 Rocket 4.3 01:08:31 10° N 01:14:03 76° ENE 01:18:04 19° SSE
Cosmos 1867 4.3 01:11:07 10° NW 01:15:52 31° WSW 01:16:44 30° SW
Cosmos 1745 Rocket 3.9 01:12:45 29° SSW 01:16:05 83° W 01:22:16 10° N
STARLINK-1205 4.4 01:14:46 10° WNW 01:18:50 53° NNE 01:22:54 10° E
RESURS DK-1 2.5 01:19:17 38° SW 01:20:44 65° WNW 01:24:52 10° NNE
STARLINK-1218 4.3 01:19:44 10° WNW 01:23:49 55° NNE 01:27:54 10° ESE
Cosmos 2227 Rocket 2.7 01:18:30 10° NNW 01:24:10 61° ENE 01:29:46 10° SE
Cosmos 1356 Rocket 3.5 01:20:14 10° NNW 01:24:19 61° W 01:25:49 36° SSW
Meteor 1-24 Rocket 4.3 01:22:03 27° SW 01:24:28 42° WNW 01:29:34 10° N
Cosmos 2369 Rocket 4.5 01:23:03 10° WNW 01:26:23 16° NW 01:29:43 10° N
Cosmos 1697 Rocket 4.2 01:23:12 13° SSE 01:27:16 28° ESE 01:32:01 10° NE
CZ-2D R/B 2.0 01:22:03 10° NNE 01:27:21 90° NNW 01:30:15 28° SSW
STARLINK-1254 4.2 01:24:43 10° WNW 01:28:49 58° NNE 01:32:55 10° ESE
ADEOS II 3.1 01:25:03 10° NNE 01:29:59 39° E 01:34:07 14° SSE
ATLAS 2AS CENTAUR R/B 3.8 01:23:17 12° WSW 01:30:26 46° NW 01:37:59 10° NE
CZ-4C R/B 3.8 01:30:46 34° SSW 01:32:07 46° W 01:36:19 10° NNW
STARLINK-1231 4.1 01:29:43 10° WNW 01:33:50 62° NNE 01:37:57 10° ESE
STARLINK-1228 3.1 01:32:18 10° WNW 01:35:34 51° SW 01:38:48 10° SE
STARLINK-1234 2.9 01:33:43 10° WNW 01:36:46 51° SW 01:37:03 48° SSW
Resurs 1-4 Rocket 2.1 01:31:49 10° N 01:37:07 74° WNW 01:40:11 26° SSW
STARLINK-1212 2.7 01:35:04 10° WNW 01:38:08 67° SW 01:41:13 10° SE
STARLINK-1105 2.7 01:35:32 10° WNW 01:38:37 66° SSW 01:41:40 10° SE
STARLINK-1232 4.0 01:34:41 10° WNW 01:38:50 65° NNE 01:42:57 10° ESE
STARLINK-1209 3.2 01:35:59 10° WNW 01:38:43 44° WSW 01:38:43 44° WSW
STARLINK-1247 2.7 01:36:26 10° WNW 01:39:32 65° SW 01:42:38 10° SE
USA 81 4.0 01:36:19 24° S 01:39:33 84° W 01:44:53 10° N
STARLINK-1227 2.7 01:36:55 10° WNW 01:39:59 64° SSW 01:43:02 10° SE
STARLINK-52 2.9 01:39:41 37° WSW 01:40:48 79° NNW 01:44:01 10° ENE
STARLINK-1226 2.7 01:37:45 10° WNW 01:40:51 63° SSW 01:43:56 10° SE
STARLINK-1215 2.7 01:38:42 10° WNW 01:41:47 62° SW 01:44:52 10° SE
Cosmos 1758 Rocket 3.8 01:39:23 22° S 01:42:02 66° E 01:46:23 10° NNE
ARIANE 5 R/B 4.0 01:37:33 10° NNE 01:42:03 31° E 01:46:28 10° SSE
STARLINK-1217 2.8 01:40:28 10° WNW 01:43:33 60° SW 01:46:37 10° SE
STARLINK-1208 3.9 01:39:39 10° WNW 01:43:47 69° NNE 01:47:56 10° ESE
STARLINK-1229 2.8 01:41:23 10° WNW 01:44:28 59° SW 01:47:33 10° SE
NPP 3.7 01:39:09 10° NNE 01:44:33 75° WNW 01:47:57 23° SSW
H-2A R/B 4.3 01:41:22 10° ESE 01:44:55 25° ENE 01:48:33 10° N
STARLINK-1270 2.8 01:42:15 10° WNW 01:45:20 58° SW 01:48:24 10° SE
STARLINK-1189 2.8 01:44:06 10° WNW 01:47:10 56° SW 01:50:14 10° SE
STARLINK-1188 2.9 01:44:59 10° WNW 01:48:03 55° SW 01:51:06 10° SE
STARLINK-1235 3.1 01:45:43 10° WNW 01:48:41 42° SW 01:51:37 10° SE
STARLINK-1271 3.8 01:44:38 10° WNW 01:48:48 74° NNE 01:52:57 10° ESE
STARLINK-1187 3.0 01:46:07 10° WNW 01:49:07 47° SW 01:52:06 10° SE
Cosmos 1898 Rocket 3.6 01:44:02 10° NNW 01:49:25 80° ENE 01:54:44 10° SSE
Starlink 7 placeholder 4.3 01:49:43 15° NW 01:50:30 19° NNW 01:52:02 10° NE
STARLINK-1191 2.9 01:47:28 10° WNW 01:50:31 52° SW 01:53:32 10° SE
Meteor 1-21 Rocket 4.2 01:46:49 22° SSW 01:50:32 82° WNW 01:56:16 10° N
Lacrosse 4 Rocket 3.4 01:47:03 10° NNW 01:51:00 32° NE 01:54:50 10° ESE
STARLINK-1221 2.9 01:48:20 10° WNW 01:51:22 51° SW 01:54:23 10° SE
Cosmos 1656 3.8 01:48:20 22° SSW 01:52:08 77° ESE 01:57:47 10° NNE
STARLINK-1222 2.9 01:49:14 10° WNW 01:52:16 50° SW 01:55:16 10° SE
STARLINK-1214 2.9 01:50:09 10° WNW 01:53:11 49° SW 01:56:10 10° SE
STARLINK-1154 3.7 01:49:37 10° WNW 01:53:47 78° NNE 01:57:56 10° ESE
CZ-4C R/B 3.0 01:50:43 17° S 01:54:06 38° ESE 01:59:24 10° NE
Cosmos 2285 Rocket 4.4 01:48:30 10° NNW 01:54:53 65° ENE 02:01:10 10° SSE
Cosmos 2084 3.7 01:52:18 24° SW 01:54:55 67° NW 01:59:24 10° NE
SJ 16-02 1.3 01:50:29 10° NNW 01:54:55 78° WSW 01:59:17 10° SSE
Cosmos 468 Rocket 4.0 01:52:22 21° SSW 01:55:50 76° ESE 02:00:58 10° NNE
Cosmos 1953 Rocket 4.2 01:54:38 14° S 01:58:21 55° E 02:02:43 10° NNE
STARLINK-1197 3.6 01:54:36 10° WNW 01:58:46 83° NNE 02:02:55 10° ESE
Cosmos 1937 Rocket 3.8 01:54:25 10° NNW 01:59:40 72° ENE 02:04:55 10° SSE
COSMOS 2455 4.2 01:54:47 10° WSW 01:59:58 30° NW 02:05:14 10° NNE
Cosmos 2369 4.4 01:55:55 14° S 02:00:28 48° ESE 02:05:54 10° NE
Meteor 2-10 Rocket 3.6 01:56:34 10° NNW 02:01:51 61° W 02:06:00 15° S
Cosmos 921 Rocket 4.4 02:00:21 16° WSW 02:02:41 25° WNW 02:06:18 10° N
STARLINK-1198 3.6 01:59:33 10° WNW 02:03:43 88° NNE 02:07:52 10° ESE
Cosmos 1709 Rocket 4.1 02:01:48 19° SSW 02:06:15 63° WNW 02:12:22 10° N
STARLINK-1199 3.5 02:04:34 10° WNW 02:08:44 87° SW 02:12:53 10° ESE
STARLINK-1210 3.5 02:09:33 10° WNW 02:13:42 81° SSW 02:17:50 10° SE
STARLINK-1320 2.8 02:14:52 24° SW 02:16:36 76° SSE 02:19:43 10° ENE
Cosmos 2219 3.7 02:11:39 10° NW 02:16:54 39° WSW 02:22:04 10° S
STARLINK-1322 2.8 02:15:11 23° SW 02:16:56 77° SSE 02:20:03 10° ENE
STARLINK-1324 2.8 02:15:32 23° SW 02:17:18 77° SSE 02:20:25 10° ENE
STARLINK-1294 2.8 02:15:47 23° SW 02:17:34 78° SSE 02:20:43 10° ENE
STARLINK-1261 2.8 02:16:09 23° SW 02:17:56 78° SSE 02:21:04 10° ENE
STARLINK-1325 2.8 02:16:30 23° SW 02:18:18 79° SSE 02:21:25 10° ENE
STARLINK-1333 2.8 02:16:48 23° SW 02:18:36 79° SSE 02:21:44 10° ENE
STARLINK-1219 3.5 02:14:31 10° WNW 02:18:40 76° SSW 02:22:48 10° SE
STARLINK-1334 2.8 02:17:07 22° SW 02:18:57 80° SSE 02:22:04 10° ENE
STARLINK-1326 2.8 02:17:28 22° SW 02:19:18 80° SSE 02:22:25 10° ENE
Cosmos 1980 Rocket 3.3 02:14:16 10° S 02:19:26 39° ESE 02:24:37 10° NE
STARLINK-1323 2.8 02:17:47 22° SW 02:19:38 81° SSE 02:22:45 10° ENE
STARLINK-1338 3.1 02:17:39 21° SW 02:19:51 74° SSE 02:23:20 10° ENE
STARLINK-1349 2.8 02:18:06 22° SW 02:19:58 81° SSE 02:23:06 10° ENE
STARLINK-1336 2.8 02:18:28 22° SW 02:20:20 82° SSE 02:23:28 10° ENE
Cosmos 858 Rocket 4.5 02:15:04 10° NNW 02:20:21 78° WSW 02:25:37 10° SSE
STARLINK-1331 2.8 02:18:45 22° SW 02:20:38 82° SSE 02:23:46 10° ENE
STARLINK-1344 2.8 02:19:05 21° SW 02:20:59 83° SSE 02:24:06 10° ENE
STARLINK-1343 2.8 02:19:25 21° SW 02:21:19 83° SSE 02:24:27 10° ENE
STARLINK-1346 2.8 02:19:43 21° SW 02:21:41 84° SSE 02:24:50 10° ENE
STARLINK-1328 2.8 02:20:05 21° SW 02:22:01 84° SSE 02:25:09 10° ENE
Cosmos 1328 3.9 02:19:19 17° SSW 02:22:13 62° W 02:26:12 10° N
STARLINK-1354 2.8 02:20:22 21° SW 02:22:19 85° SSE 02:25:27 10° ENE
CRYOSAT 2 4.4 02:17:44 10° N 02:22:39 75° W 02:27:17 11° SSW
STARLINK-1347 2.8 02:20:44 21° WSW 02:22:41 85° SSE 02:25:49 10° ENE
STARLINK-1357 2.8 02:21:02 20° WSW 02:23:00 86° SE 02:26:08 10° ENE
STARLINK-1335 2.8 02:21:22 20° WSW 02:23:21 86° SE 02:26:28 10° ENE
STARLINK-1211 3.5 02:19:30 10° WNW 02:23:37 70° SW 02:27:45 10° SE
STARLINK-1327 2.8 02:21:41 20° WSW 02:23:40 87° SSE 02:26:48 10° ENE
STARLINK-1371 3.1 02:21:31 19° SW 02:23:53 79° SE 02:27:23 10° ENE
STARLINK-1340 2.8 02:22:01 20° WSW 02:24:02 87° SSE 02:27:10 10° ENE
STARLINK-1356 2.8 02:22:21 20° WSW 02:24:22 88° SE 02:27:30 10° ENE
ERS-2 2.2 02:20:46 10° SSE 02:24:24 79° ENE 02:28:05 10° NNW
STARLINK-1345 2.8 02:22:40 20° WSW 02:24:43 88° SSE 02:27:51 10° ENE
STARLINK-1355 2.8 02:22:59 20° WSW 02:25:03 89° SE 02:28:11 10° ENE
STARLINK-1321 2.8 02:23:18 19° WSW 02:25:22 89° SE 02:28:30 10° ENE
STARLINK-1358 2.8 02:23:39 19° WSW 02:25:44 90° SSE 02:28:52 10° ENE
STARLINK-1341 3.1 02:23:29 18° SW 02:25:56 82° SSE 02:29:26 10° ENE
STARLINK-1332 2.8 02:23:57 19° WSW 02:26:03 90° NNW 02:29:10 10° ENE
STARLINK-1348 2.8 02:24:18 19° WSW 02:26:25 89° NNW 02:29:33 10° ENE
STARLINK-1330 2.8 02:24:36 19° WSW 02:26:43 89° NW 02:29:51 10° ENE
STARLINK-1363 2.8 02:24:56 19° WSW 02:27:03 88° NW 02:30:11 10° ENE
STARLINK-1337 2.8 02:25:15 18° WSW 02:27:24 88° NNW 02:30:32 10° ENE
STARLINK-1342 2.8 02:25:35 18° WSW 02:27:44 87° NNW 02:30:52 10° ENE
STARLINK-1374 3.1 02:25:26 18° SW 02:27:59 84° SSE 02:31:30 10° ENE
STARLINK-1364 2.8 02:25:55 18° WSW 02:28:05 87° NNW 02:31:13 10° ENE
IRS-1C 4.1 02:22:56 10° NNE 02:28:18 81° WNW 02:33:25 11° SSW
STARLINK-1376 2.8 02:26:15 18° WSW 02:28:26 86° NW 02:31:34 10° ENE
STARLINK-1245 3.5 02:24:30 10° WNW 02:28:37 65° SW 02:32:42 10° SE
STARLINK-1360 2.8 02:26:30 18° WSW 02:28:41 86° NW 02:31:50 10° ENE
STARLINK-1361 2.8 02:26:56 18° WSW 02:29:09 85° NNW 02:32:16 10° ENE
STARLINK-1367 2.8 02:27:10 18° WSW 02:29:24 85° NNW 02:32:35 10° ENE
CSL-04 DEB 4.5 02:25:26 10° S 02:29:39 73° WSW 02:34:00 10° NNW
STARLINK-1366 2.8 02:27:33 17° WSW 02:29:47 84° NNW 02:32:55 10° ENE
STARLINK-1339 3.1 02:27:27 17° WSW 02:30:04 87° SSE 02:33:35 10° ENE
SL-4 R/B 3.2 02:26:04 10° W 02:30:45 49° N 02:35:15 10° ENE
CZ-4B R/B 4.5 02:26:29 10° N 02:31:06 35° WNW 02:35:13 13° SW
STARLINK-1377 3.1 02:29:28 16° WSW 02:32:09 90° SW 02:35:41 10° ENE
Cosmos 2297 Rocket 2.8 02:27:16 10° NW 02:32:25 37° WSW 02:37:32 10° S
STARLINK-1233 3.6 02:29:29 10° WNW 02:33:34 60° SW 02:37:39 10° SE
STARLINK-1353 3.1 02:31:17 16° WSW 02:34:01 88° NNW 02:37:31 10° ENE
STARLINK-1375 3.1 02:33:04 15° WSW 02:35:52 85° NNW 02:39:22 10° ENE
Cosmos 2082 3.7 02:30:40 10° NNW 02:36:18 66° WSW 02:41:51 10° SSE
Cosmos 540 Rocket 3.6 02:32:24 10° SSW 02:37:32 75° ESE 02:42:40 10° NNE
ATLAS CENTAUR R/B 3.8 02:35:32 10° WNW 02:37:54 14° NNW 02:40:11 10° N
STARLINK-1350 3.2 02:35:22 14° WSW 02:38:16 82° NNW 02:41:46 10° ENE
STARLINK-1204 3.7 02:34:29 10° WNW 02:38:33 56° SW 02:42:36 10° SE
FALCON 9 DEB 4.0 02:35:31 10° W 02:38:51 46° NNW 02:42:13 10° NE
STARLINK-29 4.4 02:37:44 10° W 02:40:41 33° NNW 02:43:37 10° NE
STARLINK-1352 3.2 02:37:40 13° WSW 02:40:42 79° NNW 02:44:14 10° ENE
STARLINK-1241 4.4 02:36:43 10° WNW 02:40:48 54° NNE 02:44:52 10° E
OE (NEXTSAT) 4.3 02:37:22 10° W 02:40:51 83° S 02:44:20 10° E
Landsat 5 4.1 02:36:51 10° SSE 02:41:18 68° ENE 02:45:49 10° N
Cosmos 1825 Rocket 4.3 02:38:21 13° SW 02:41:43 35° WNW 02:45:44 10° N
Cosmos 2278 3.9 02:36:22 10° SSW 02:41:58 70° ESE 02:47:37 10° NNE
Cosmos 1455 3.7 02:39:16 10° NW 02:42:03 20° W 02:44:16 13° SW
CZ-2D R/B 3.6 02:38:33 10° NNE 02:42:39 76° ESE 02:46:52 10° S
STARLINK-1368 3.3 02:39:45 13° WSW 02:42:53 77° NNW 02:46:25 10° ENE
STARLINK-1238 3.7 02:39:27 10° WNW 02:43:29 51° SW 02:47:30 10° SE
Meteor 1-11 4.2 02:38:31 10° SSW 02:44:09 76° WNW 02:49:47 10° N
USA 234 4.1 02:38:06 10° ENE 02:44:13 41° SE 02:50:18 10° SSW
Meteor 1-28 Rocket 3.2 02:40:31 10° S 02:44:15 65° WSW 02:48:02 10° NNW
STARLINK-1369 3.3 02:41:37 12° WSW 02:44:48 74° NNW 02:48:18 10° ENE
SL-16 R/B 3.9 02:41:07 12° SW 02:44:49 19° W 02:49:03 10° NW
STARLINK-1239 4.3 02:41:41 10° WNW 02:45:48 57° NNE 02:49:52 10° ESE
ATLAS CENTAUR R/B 3.1 02:43:41 10° WNW 02:47:00 33° SW 02:54:03 10° SSE
STARLINK-1372 3.3 02:43:58 11° WSW 02:47:16 72° NNW 02:50:48 10° ENE
Cosmos 2074 Rocket 4.1 02:41:16 10° SSW 02:47:33 76° W 02:53:53 10° N
Cosmos 2263 Rocket 3.6 02:42:52 10° NNW 02:48:14 42° NE 02:53:31 10° SE
STARLINK-1201 3.8 02:44:28 10° WNW 02:48:28 47° SW 02:52:26 10° SE
STARLINK-1378 3.4 02:46:05 11° WSW 02:49:30 70° NNW 02:53:02 10° ENE
Cosmos 841 Rocket 3.5 02:44:34 10° SSW 02:49:50 81° WNW 02:55:07 10° NNE
Cosmos 372 Rocket 4.0 02:44:52 10° NNW 02:50:00 87° ENE 02:55:10 10° SSE
STARLINK-1329 3.4 02:46:35 11° WSW 02:50:01 69° NNW 02:53:34 10° ENE
GP-B 4.5 02:46:35 10° NNW 02:50:07 24° WNW 02:53:36 10° SW
STARLINK-1365 3.4 02:47:17 10° WSW 02:50:45 66° NNW 02:54:16 10° ENE
STARLINK-1240 4.2 02:46:41 10° WNW 02:50:48 61° NNE 02:54:53 10° ESE
IRS-1D 4.5 02:46:02 10° N 02:50:52 35° WNW 02:55:37 10° SW
STARLINK-1379 3.4 02:48:13 10° WSW 02:51:43 67° NNW 02:55:15 10° ENE
STARLINK-1362 3.4 02:48:47 10° WSW 02:52:19 67° NNW 02:55:51 10° ENE
STARLINK-1206 3.9 02:49:28 10° WNW 02:53:25 44° SW 02:57:21 10° SSE
Cosmos 1892 4.4 02:50:09 10° SSE 02:53:36 33° E 02:57:04 10° NNE
Cosmos-2242 4.2 02:50:10 10° NW 02:53:39 25° W 02:57:05 10° SW
COBE Rocket 4.1 02:49:30 10° S 02:54:19 57° W 02:59:19 10° NNW
Cosmos 1869 3.8 02:50:33 10° N 02:54:27 62° E 02:58:16 10° SSE
STARLINK-1373 3.5 02:51:05 10° WSW 02:54:37 65° NNW 02:58:09 10° ENE
Cosmos 1400 Rocket 3.1 02:51:01 10° NNW 02:55:00 50° W 02:59:00 10° S
STARLINK-1216 4.1 02:51:39 10° WNW 02:55:47 64° NNE 02:59:53 10° ESE
Cosmos 2221 2.7 02:51:30 10° N 02:55:50 77° E 03:00:10 10° SSE
STARLINK-1390 3.5 02:53:10 10° WSW 02:56:40 63° NNW 03:00:12 10° ENE
ATLAS 3B R/B 4.4 02:55:38 10° W 02:57:00 11° WSW 02:58:23 10° WSW
STARLINK-1205 4.0 02:54:28 10° WNW 02:58:23 40° SW 03:02:15 10° SSE
Cosmos 2184 Rocket 4.1 02:52:59 10° SSW 02:59:06 65° W 03:05:15 10° N
SL-08 R/B 4.0 02:55:37 10° SSW 02:59:53 34° W 03:04:08 10° NNW
CZ-4C R/B 3.1 02:56:39 10° S 03:00:13 66° W 03:03:51 10° NNW
STARLINK-1237 4.0 02:56:38 10° WNW 03:00:47 68° NNE 03:04:54 10° ESE
STARLINK-1218 4.1 02:59:28 10° WNW 03:03:18 37° SW 03:07:08 10° SSE
STARLINK-1202 4.0 03:01:37 10° WNW 03:05:46 72° NNE 03:09:54 10° ESE
CZ-2D R/B 4.1 03:03:42 10° NNW 03:06:40 15° NW 03:09:36 10° W
Cosmos 2227 Rocket 3.4 03:03:24 10° NW 03:07:44 23° W 03:12:03 10° SSW
STARLINK-1254 4.2 03:04:30 10° WNW 03:08:17 34° SW 03:12:01 10° SSE
Cosmos 1763 Rocket 4.5 03:04:14 10° WSW 03:08:51 33° WNW 03:13:27 10° N
ADEOS II 3.1 03:04:58 10° N 03:09:34 32° WNW 03:14:09 10° SW
Cosmos 1697 Rocket 3.2 03:05:27 10° SW 03:10:57 50° WNW 03:16:29 10° NNE
Cosmos 2150 Rocket 4.0 03:06:49 10° NNW 03:12:03 81° WSW 03:17:11 10° SSE
